Location: Bittelbronn
(48.4454°N, 8.5870°E)
Time: 02:17:57
(UTC+00:00)

Tiangong - Visible Passes

Search period start: 14 July 2024 00:00
Search period end: 24 July 2024 00:00
Orbit: 373 x 378 km, 41.5° (Epoch: 13 July)

Date Brightness Start Highest point End Pass type
(mag) Time Alt. Az. Time Alt. Az. Time Alt. Az.
15 Jul -0.1 02:22:55 13° S 02:24:05 15° SSE 02:25:59 10° SE visible
16 Jul -0.6 02:55:17 10° SW 02:57:43 21° S 03:00:09 10° ESE visible
17 Jul -0.5 01:55:16 18° SSE 01:55:16 18° SSE 01:57:30 10° ESE visible
18 Jul -0.8 02:27:25 17° SW 02:28:48 22° S 02:31:17 10° SE visible
19 Jul -0.1 01:27:33 16° SE 01:27:33 16° SE 01:28:35 10° ESE visible
19 Jul -0.6 02:59:54 10° WSW 03:02:15 20° S 03:04:36 10° SE visible
20 Jul -0.8 01:59:48 22° S 01:59:48 22° S 02:02:04 10° SE visible
21 Jul -0.5 02:32:12 16° SSW 02:32:52 17° SSW 02:35:00 10° SSE visible
